{"data":{"norad_id":49216,"intl_designator":"2021-083AG","name":"ONEWEB-0352","alt_names":[],"object_type":"PAYLOAD","status":"ACTIVE","operator":null,"country":"UK","launch_date":"2021-09-14","launch_site_code":"TYMSC","launch_vehicle":null,"mission":null,"orbit_class":"UNKNOWN","rcs_meters":null,"size_class":null,"mass_kg":null,"dimensions":null,"purposes":["comms"],"wikipedia_slug":null,"has_3d_model":false,"image_url":null,"decayed_at":null,"tle_current":{"epoch":"2026-05-25T00:27:57.737664Z","epoch_age_seconds":76865,"freshness":"FRESH","line1":"1 49216U 21083AG  26145.01941826  .00000333  00000+0  87611-3 0  9999","line2":"2 49216  87.8940 324.8484 0001382  89.4706 270.6581 13.13469223227982","mean_motion":13.13469223,"eccentricity":0.0001382,"inclination_deg":87.894,"raan_deg":324.8484,"arg_perigee_deg":89.4706,"mean_anomaly_deg":270.6581,"bstar":0.00087611,"rev_number":22798,"period_min":109.63332636839,"perigee_km":1208.7197438571,"apogee_km":1210.8170409075,"semimajor_km":7587.9053923823,"source":"CELESTRAK","updated_at":"2026-05-25T13:38:22.517883Z"}}}